sat.trackr.live / text

‹ back to catalog

YAOGAN-9 01A

NORAD 36413 · 2010-009A

PAYLOAD ACTIVE UNKNOWN

§ Identity

Operator
Country
PRC
Launch date
2010-03-05
Launch site
JSC
Launch vehicle
Mass (kg)
RCS (m²)
2.70

External: N2YO · Heavens-Above · Gunter

§ Orbital elements

Epoch: 2026-09-13T02:36:39.156192Z

Period
107.01 min
Inclination
63.3624°
Eccentricity
0.0545015
Mean motion
13.45716661 rev/d
Perigee alt
681.1 km
Apogee alt
1,495.0 km
Semi-major
7,466.2 km
B*
7.0203e-5
RAAN
130.6699°
Arg perigee
22.4492°
Mean anomaly
339.9428°
Rev number
81,180

§ Raw data

YAOGAN-9 01A1 36413U 10009A   26256.10878653  .00000010  00000+0  70203-4 0  99922 36413  63.3624 130.6699 0545015  22.4492 339.9428 13.45716661811806

JSON: /api/v1/satellites/36413 · /tle

For live sub-satellite position, see the globe view (requires WebGL).

§ Visibility from observer

Set your observer location to see the next 7 days of passes ≥ 10°. The values pass through the URL so the page stays shareable.

No JS? Fill the form by hand. The geolocation button needs JavaScript.